Du Bois, PA

4:42 AM EDT on June 27, 2017 (GMT -0400)
Du Bois-Jefferson County

Weather History for KDUJ - January, 2013

Change the Weather History Date:

Thursday, January 24, 2013

  Actual Average Record
Temperature  
Mean Temperature 9 °F 24 °F  
Max Temperature 17 °F 31 °F 57 °F (1967)
Min Temperature 0 °F 16 °F -20 °F (1963)
Degree Days  
Heating Degree Days 56 41  
Month to date heating degree days 926 997  
Since 1 July heating degree days 3384 3659  
Cooling Degree Days 0 0  
Month to date cooling degree days 0 0  
Year to date cooling degree days 0 0  
Moisture  
Dew Point 0 °F    
Average Humidity 67    
Maximum Humidity 91    
Minimum Humidity 42    
Precipitation  
Precipitation T in 0.09 in 0.35 in (1984)
Month to date precipitation 0.78 2.44  
Sea Level Pressure  
Sea Level Pressure 30.22 in    
Wind  
Wind Speed 6 mph (WNW)    
Max Wind Speed 21 mph    
Max Gust Speed 26 mph    
Visibility 6 miles    
Events Snow    
T = Trace of Precipitation, MM = Missing Value Source: NWS Daily Summary

Daily Weather History Graph

Daily Weather History Graph

Search for Another Location

Airport or City:

Trip Planner

Search our weather history database for the weather conditions in past years. The results will help you decide how hot, cold, wet, or windy it might be!

Date:

Astronomy

Jan. 24, 2013 Rise Set
Actual Time 7:33 AM EST 5:22 PM EST
Civil Twilight 7:03 AM EST 5:52 PM EST
Nautical Twilight 6:30 AM EST 6:25 PM EST
Astronomical Twilight 5:57 AM EST 6:58 PM EST
Moon 3:22 PM EST (1/24) 5:29 AM EST (1/24)
Length of Visible Light 10h 48m
Length of Day
9h 49m
Waxing Gibbous, 94% of the Moon is Illuminated
Jan 24
Waxing Gibbous
Jan 26
Full
Feb 3
Last Quarter
Feb 10
New
Feb 17
First Quarter

Hourly Weather History & Observations

Time (EST) Temp. Windchill Dew Point Humidity Pressure Visibility Wind Dir Wind Speed Gust Speed Precip Events Conditions
12:38 AM 3.2 °F - -0.4 °F 85% 29.95 in 2.0 mi Calm Calm - N/A   Overcast
12:45 AM 3.2 °F - 1.4 °F 92% 29.95 in 1.5 mi Calm Calm - 0.00 in Snow Light Snow
12:56 AM 3.9 °F - 1.0 °F 88% 30.07 in 1.2 mi Calm Calm - 0.00 in Snow Light Snow
1:15 AM 5.0 °F - 1.4 °F 85% 29.95 in 2.0 mi Calm Calm - 0.00 in   Overcast
1:25 AM 5.0 °F - 1.4 °F 85% 29.95 in 3.0 mi Calm Calm - 0.00 in   Overcast
1:47 AM 5.0 °F - 1.4 °F 85% 29.95 in 2.0 mi Calm Calm - 0.00 in   Overcast
1:56 AM 3.9 °F -3.4 °F -0.9 °F 80% 30.07 in 2.5 mi East 3.5 mph - 0.00 in   Haze
2:37 AM 3.2 °F - -0.4 °F 85% 29.96 in 3.0 mi Calm Calm - N/A   Overcast
2:56 AM 3.0 °F - -0.9 °F 84% 30.09 in 6.0 mi Calm Calm - N/A   Overcast
3:46 AM 3.2 °F - -0.4 °F 85% 29.98 in 5.0 mi Calm Calm - N/A   Overcast
3:56 AM 3.9 °F - -0.0 °F 84% 30.11 in 4.0 mi Calm Calm - N/A   Overcast
4:28 AM 3.2 °F - -0.4 °F 85% 30.00 in 2.0 mi Calm Calm - N/A   Overcast
4:35 AM 3.2 °F - -0.4 °F 85% 30.00 in 3.0 mi Calm Calm - N/A   Overcast
4:56 AM 3.0 °F - -0.9 °F 84% 30.14 in 5.0 mi Calm Calm - N/A   Overcast
5:05 AM 3.2 °F - -0.4 °F 85% 30.02 in 2.5 mi Calm Calm - 0.00 in Snow Light Snow
5:13 AM 3.2 °F - 1.4 °F 92% 30.03 in 1.0 mi Calm Calm - 0.00 in Snow Light Snow
5:41 AM 3.2 °F - -0.4 °F 85% 30.04 in 2.5 mi Calm Calm - 0.00 in   Overcast
5:54 AM 3.2 °F - -0.4 °F 85% 30.05 in 3.0 mi Calm Calm - 0.00 in   Overcast
5:56 AM 3.0 °F - -0.9 °F 84% 30.18 in 4.0 mi Calm Calm - 0.00 in   Overcast
6:56 AM -0.0 °F - -2.9 °F 88% 30.23 in 7.0 mi Calm Calm - N/A   Clear
7:56 AM 1.9 °F -7.6 °F -2.0 °F 83% 30.28 in 8.0 mi WNW 4.6 mph - N/A   Clear
8:56 AM 3.9 °F -5.3 °F 1.0 °F 88% 30.32 in 10.0 mi WNW 4.6 mph - N/A   Clear
10:56 AM 12.0 °F -0.4 °F 3.9 °F 70% 30.39 in 10.0 mi WNW 9.2 mph - N/A   Partly Cloudy
11:33 AM 12.2 °F -3.7 °F 3.2 °F 67% 30.27 in 10.0 mi WNW 15.0 mph 20.7 mph N/A   Mostly Cloudy
11:56 AM 12.9 °F -1.6 °F 3.9 °F 67% 30.40 in 10.0 mi WNW 12.7 mph - N/A   Overcast
12:37 PM 15.8 °F 1.4 °F 3.2 °F 58% 30.28 in 9.0 mi WNW 13.8 mph 24.2 mph N/A   Overcast
12:56 PM 15.1 °F 0.5 °F 3.9 °F 61% 30.40 in 5.0 mi WNW 13.8 mph 19.6 mph N/A   Haze
1:03 PM 15.8 °F 0.3 °F 5.0 °F 62% 30.28 in 2.0 mi NW 16.1 mph 21.9 mph 0.00 in Snow Light Snow
1:18 PM 15.8 °F 4.2 °F 1.4 °F 53% 30.28 in 9.0 mi NW 9.2 mph 19.6 mph 0.00 in   Overcast
1:56 PM 15.1 °F -0.6 °F -0.9 °F 49% 30.40 in 10.0 mi NW 16.1 mph 25.3 mph 0.00 in   Mostly Cloudy
2:56 PM 16.0 °F 5.3 °F -2.0 °F 45% 30.42 in 10.0 mi WNW 8.1 mph - N/A   Partly Cloudy
3:56 PM 15.1 °F -0.1 °F -4.0 °F 43% 30.45 in 10.0 mi NW 15.0 mph 20.7 mph N/A   Partly Cloudy
4:56 PM 12.9 °F -0.2 °F -4.0 °F 47% 30.47 in 10.0 mi West 10.4 mph - N/A   Clear
5:56 PM 10.9 °F 0.2 °F -5.1 °F 49% 30.50 in 10.0 mi NNW 6.9 mph - N/A   Clear
6:56 PM 9.0 °F -0.9 °F -4.0 °F 56% 30.53 in 10.0 mi NW 5.8 mph - N/A   Clear
7:56 PM 8.1 °F -3.2 °F -2.9 °F 61% 30.54 in 10.0 mi West 6.9 mph - N/A   Clear
8:56 PM 7.0 °F 0.1 °F -4.0 °F 61% 30.52 in 10.0 mi West 3.5 mph - N/A   Clear
9:56 PM 5.0 °F -5.6 °F -4.0 °F 66% 30.51 in 10.0 mi WNW 5.8 mph - N/A   Clear
10:56 PM 3.9 °F -5.3 °F -4.0 °F 70% 30.51 in 10.0 mi West 4.6 mph - N/A   Clear
11:56 PM 1.9 °F -7.6 °F -4.0 °F 76% 30.52 in 10.0 mi SW 4.6 mph - N/A   Clear